Coffeyville, KS

3:45 AM CST on November 22, 2017 (GMT -0600)
Coffeyville Municipal

Weather History for KCFV - December, 2012

Change the Weather History Date:

Sunday, December 9, 2012

  Actual Average Record
Temperature  
Mean Temperature 39 °F -  
Max Temperature 50 °F 47 °F 66 °F (2015)
Min Temperature 28 °F 28 °F -5 °F (2005)
Degree Days  
Heating Degree Days 26    
Moisture  
Dew Point 36 °F    
Average Humidity 75    
Maximum Humidity 93    
Minimum Humidity 45    
Precipitation  
Precipitation 0.01 in - - ()
Sea Level Pressure  
Sea Level Pressure 29.92 in    
Wind  
Wind Speed 9 mph (North)    
Max Wind Speed 21 mph    
Max Gust Speed 29 mph    
Visibility 7 miles    
Events Rain    
Averages and records for this station are not official NWS values.
T = Trace of Precipitation, MM = Missing Value Source: NWS Daily Summary

Daily Weather History Graph

Daily Weather History Graph

Search for Another Location

Airport or City:

Trip Planner

Search our weather history database for the weather conditions in past years. The results will help you decide how hot, cold, wet, or windy it might be!

Date:

Astronomy

Dec. 09, 2012 Rise Set
Actual Time 7:24 AM CST 5:05 PM CST
Civil Twilight 6:55 AM CST 5:34 PM CST
Nautical Twilight 6:23 AM CST 6:06 PM CST
Astronomical Twilight 5:51 AM CST 6:38 PM CST
Moon 3:02 AM CST (12/9) 2:09 PM CST (12/9)
Length of Visible Light 10h 38m
Length of Day
9h 40m
Waning Crescent, 18% of the Moon is Illuminated
Dec 9
Waning Crescent
Dec 13
New
Dec 19
First Quarter
Dec 28
Full
Jan 4
Last Quarter

Hourly Weather History & Observations

Time (CST) Temp. Windchill Dew Point Humidity Pressure Visibility Wind Dir Wind Speed Gust Speed Precip Events Conditions
12:52 AM 48.0 °F - 46.0 °F 93% 29.83 in 4.0 mi NE 4.6 mph - N/A   Overcast
1:52 AM 48.0 °F - 45.0 °F 89% 29.82 in 4.0 mi NNE 3.5 mph - N/A   Overcast
2:52 AM 48.0 °F - 45.0 °F 89% 29.82 in 4.0 mi North 4.6 mph - N/A   Overcast
3:24 AM 48.2 °F - 44.6 °F 87% 29.80 in 4.0 mi North 4.6 mph - N/A   Overcast
3:52 AM 48.0 °F - 45.0 °F 89% 29.81 in 4.0 mi North 5.8 mph - N/A   Overcast
4:07 AM 48.2 °F - 44.6 °F 87% 29.80 in 4.0 mi North 5.8 mph - N/A   Overcast
4:52 AM 48.0 °F - 45.0 °F 89% 29.82 in 5.0 mi NNW 8.1 mph - N/A   Overcast
5:00 AM 48.2 °F - 44.6 °F 87% 29.81 in 5.0 mi North 8.1 mph - N/A   Overcast
5:27 AM 46.4 °F 42.4 °F 44.6 °F 93% 29.80 in 5.0 mi North 8.1 mph - N/A   Overcast
5:52 AM 46.9 °F - 44.1 °F 90% 29.82 in 5.0 mi North 6.9 mph - N/A   Overcast
6:24 AM 46.4 °F 42.9 °F 44.6 °F 93% 29.82 in 5.0 mi North 6.9 mph - N/A   Overcast
6:52 AM 46.9 °F - 44.1 °F 90% 29.85 in 5.0 mi NNW 3.5 mph - N/A   Overcast
7:14 AM 46.4 °F 43.5 °F 44.6 °F 93% 29.86 in 6.0 mi NNW 5.8 mph - 0.00 in   Overcast
7:24 AM 46.4 °F 42.9 °F 44.6 °F 93% 29.87 in 5.0 mi NNW 6.9 mph - 0.00 in   Overcast
7:52 AM 46.9 °F - 44.1 °F 90% 29.88 in 4.0 mi North 9.2 mph - 0.00 in Rain Light Rain
8:11 AM 46.4 °F 41.9 °F 44.6 °F 93% 29.88 in 2.5 mi North 9.2 mph - 0.00 in   Overcast
8:14 AM 46.4 °F 41.9 °F 44.6 °F 93% 29.88 in 3.0 mi North 9.2 mph - 0.00 in   Overcast
8:35 AM 46.4 °F 41.5 °F 44.6 °F 93% 29.88 in 4.0 mi North 10.4 mph - 0.00 in   Overcast
8:52 AM 46.9 °F - 43.0 °F 86% 29.89 in 5.0 mi North 8.1 mph - 0.00 in   Overcast
9:36 AM 46.4 °F 41.9 °F 42.8 °F 87% 29.90 in 6.0 mi North 9.2 mph - 0.01 in   Haze
9:52 AM 48.0 °F - 42.1 °F 80% 29.91 in 7.0 mi North 15.0 mph 23.0 mph 0.01 in   Overcast
10:25 AM 48.2 °F - 41.0 °F 76% 29.91 in 8.0 mi North 15.0 mph 20.7 mph N/A   Overcast
10:52 AM 48.9 °F - 41.0 °F 74% 29.92 in 8.0 mi North 13.8 mph - N/A   Overcast
11:17 AM 48.2 °F - 39.2 °F 71% 29.91 in 9.0 mi North 15.0 mph 21.9 mph N/A   Overcast
12:52 PM 50.0 °F - 39.0 °F 66% 29.93 in 10.0 mi NNW 13.8 mph - N/A   Overcast
1:52 PM 48.0 °F - 34.0 °F 58% 29.93 in 10.0 mi NNW 17.3 mph 25.3 mph N/A   Overcast
2:29 PM 48.2 °F - 33.8 °F 58% 29.93 in 10.0 mi North 13.8 mph - N/A   Overcast
2:52 PM 46.9 °F - 30.9 °F 54% 29.94 in 10.0 mi NW 18.4 mph 27.6 mph N/A   Overcast
3:52 PM 45.0 °F 37.4 °F 25.0 °F 46% 29.98 in 10.0 mi NNW 18.4 mph 25.3 mph N/A   Overcast
4:52 PM 39.9 °F 30.2 °F 19.9 °F 45% 30.01 in 10.0 mi NNW 20.7 mph 28.8 mph N/A   Clear
5:52 PM 36.0 °F 25.3 °F 17.1 °F 46% 30.05 in 10.0 mi NNW 19.6 mph 27.6 mph N/A   Clear
6:52 PM 33.1 °F 21.9 °F 15.1 °F 48% 30.08 in 10.0 mi NNW 18.4 mph 27.6 mph N/A   Scattered Clouds
7:52 PM 30.9 °F 21.2 °F 14.0 °F 50% 30.10 in 10.0 mi NNW 12.7 mph - N/A   Clear
8:52 PM 30.0 °F 19.5 °F 12.9 °F 49% 30.10 in 10.0 mi NNW 13.8 mph - N/A   Clear
9:52 PM 30.0 °F 18.3 °F 12.0 °F 47% 30.12 in 10.0 mi NNW 17.3 mph 23.0 mph N/A   Clear
10:52 PM 28.9 °F 17.3 °F 12.0 °F 49% 30.13 in 10.0 mi NNW 16.1 mph - N/A   Clear
11:52 PM 28.9 °F 16.1 °F 12.0 °F 49% 30.14 in 10.0 mi NW 19.6 mph 26.5 mph N/A   Mostly Cloudy